Home > Weather > Minsk > Past weeks

Flag for Belarus Weather for the Past 2 Weeks in Minsk, Belarus

Now
61 °F

Partly sunny.


Feels Like: 61 °F
Forecast: 45 / 68 °F
Wind: 15 mph from East

Location: Loshitsa / Minsk International 1

Current Time: May 6, 2016 at 8:04:44 PM

Latest Report: May 6, 2016 at 5:30 PM


Visibility: N/A

Pressure: 30.07 "Hg

Humidity: 48%

Dew Point: 41 °F

Location of MinskLocation

Historic Weather in Minsk — Graph

°F

Minsk Temperature Yesterday

Maximum temperature yesterday: 66 °F (at 2:00 PM)
Minimum temperature yesterday: 52 °F (at 7:00 AM)
Average temperature yesterday: 61 °F

High & Low Weather Summary for the Past Weeks

 TemperatureHumidityPressure
High66 °F (May 4, 2:00 PM)100% (Apr 26, 7:00 AM)30.24 "Hg (Apr 26, 7:00 AM)
Low34 °F (Apr 27, 7:00 AM)34% (Apr 28, 1:00 PM)29.50 "Hg (Apr 26, 10:00 AM)
Average51 °F68%29.94 "Hg
* Reported Apr 21 5:00 PM — May 6 5:30 PM, Minsk, Weather by CustomWeather, © 2016

Note: Actual official high and low records may vary slightly from our data, if they occured in-between our weather recording intervals... More about our weather records

Advertising

Minsk Weather History for the Previous 24 Hours

Scroll right to see more
 ConditionsComfort  
Time TempWeatherWind HumidityBarometerVisibility
5:30 PM
Fri, May 6
61 °FPartly sunny.15 mph48%30.07 "HgN/A
5:00 PM61 °FPartly sunny.15 mph48%30.07 "HgN/A
4:30 PM64 °FPartly sunny.15 mph34%30.07 "HgN/A
4:00 PM64 °FPartly sunny.15 mph34%30.07 "HgN/A
3:30 PM64 °FPartly sunny.20 mph34%30.07 "HgN/A
3:00 PM64 °FPartly sunny.20 mph34%30.07 "HgN/A
2:30 PM64 °FPartly sunny.20 mph34%30.09 "HgN/A
2:00 PM64 °FPartly sunny.20 mph34%30.09 "HgN/A
1:30 PM64 °FPartly sunny.20 mph34%30.09 "HgN/A
1:00 PM64 °FPartly sunny.20 mph34%30.09 "HgN/A
12:30 PM64 °FPartly sunny.20 mph34%30.09 "HgN/A
12:00 PM64 °FPartly sunny.13 mph34%30.09 "HgN/A
11:30 AM63 °FPartly sunny.13 mph39%30.12 "HgN/A
11:00 AM63 °FScattered clouds.13 mph39%30.12 "HgN/A
10:30 AM61 °FSunny.10 mph48%30.12 "Hg10 mi
10:00 AM61 °FSunny.10 mph48%30.12 "Hg10 mi
9:30 AM55 °FSunny.8 mph47%30.12 "Hg10 mi
9:00 AM55 °FSunny.8 mph47%30.12 "Hg10 mi
8:30 AM52 °FSunny.6 mph54%30.12 "Hg10 mi
8:00 AM52 °FSunny.10 mph54%30.12 "Hg10 mi
7:30 AM50 °FSunny.6 mph58%30.12 "Hg10 mi
7:00 AM50 °FSunny.6 mph58%30.12 "Hg10 mi
Weather by CustomWeather, © 2016

See weather overviewHow to use our weather pages